Home   Weather   Eisenach   Past weeks

Flag for Germany Past Weather in Eisenach, Thuringia, Germany — Yesterday and Last 2 Weeks

46 °F

Drizzle. Fog.

Feels Like: 44 °F
Forecast: 47 / 54 °F
Wind: 5 mph from Northeast

Location: Erfurt-Bindersleben

Current Time: Oct 24, 2016 at 5:58:22 PM

Latest Report: Oct 24, 2016 at 5:20 PM

Visibility: 0 mi

Pressure: 29.92 "Hg

Humidity: 100%

Dew Point: 46 °F

Location of EisenachLocation

Past Weather in Eisenach — Graph


Eisenach Temperature Yesterday

Maximum temperature yesterday: 45 °F (at 3:20 PM)
Minimum temperature yesterday: 36 °F (at 12:20 AM)
Average temperature yesterday: 41 °F

High & Low Weather Summary for the Past Weeks

High63 °F (Oct 16, 1:20 PM)100% (Oct 9, 11:20 PM)30.27 "Hg (Oct 9, 11:20 PM)
Low36 °F (Oct 23, 12:20 AM)64% (Oct 16, 1:20 PM)29.74 "Hg (Oct 15, 1:20 AM)
Average45 °F92%30.03 "Hg
* Reported Oct 9 4:20 PM — Oct 24 4:20 PM, Eisenach, Weather by CustomWeather, © 2016

Note: Actual official high and low records may vary slightly from our data, if they occured in-between our weather recording intervals... More about our weather records


Eisenach Weather History for the Previous 24 Hours

Scroll right to see more
Time TempWeatherWind HumidityBarometerVisibility
4:20 PM
Mon, Oct 24
46 °FDrizzle. Fog.5 mph100%29.95 "Hg0 mi
3:50 PM46 °FDrizzle. Fog.7 mph100%29.92 "Hg0 mi
3:20 PM46 °FDrizzle. Fog.8 mph100%29.95 "Hg1 mi
2:50 PM46 °FLight rain. Fog.7 mph100%29.95 "Hg1 mi
2:20 PM46 °FLight rain. Fog.8 mph100%29.95 "Hg1 mi
1:50 PM46 °FDrizzle. Fog.5 mph100%29.95 "Hg1 mi
1:20 PM46 °FLight rain. Fog.6 mph93%29.95 "Hg1 mi
12:50 PM45 °FFog.2 mph93%29.98 "Hg1 mi
12:20 PM43 °FLight rain. Fog.3 mph100%29.98 "Hg1 mi
11:50 AM43 °FLight rain. Fog.5 mph100%29.98 "Hg1 mi
11:20 AM43 °FLight rain. Fog.3 mph100%29.98 "Hg1 mi
10:50 AM43 °FFog.3 mph100%29.98 "Hg1 mi
10:20 AM43 °FSleet. Cloudy.3 mph100%29.98 "Hg1 mi
9:50 AM41 °FQuite cool.3 mph100%29.98 "Hg1 mi
9:20 AM41 °FSleet. Cloudy.5 mph100%29.98 "Hg1 mi
8:50 AM41 °FQuite cool.2 mph100%29.95 "Hg0 mi
8:20 AM41 °FFog.3 mph100%29.95 "Hg0 mi
7:50 AM41 °FFog.3 mph100%29.95 "Hg0 mi
7:20 AM41 °FFog.3 mph100%29.95 "Hg1 mi
6:50 AM41 °FFog.3 mph100%29.95 "Hg2 mi
6:20 AM41 °FFog.2 mph100%29.95 "Hg2 mi
5:50 AM41 °FFog.1 mph100%29.95 "Hg2 mi
5:20 AM41 °FFog.2 mph100%29.95 "Hg2 mi
4:50 AM41 °FFog.5 mph100%29.95 "Hg2 mi
4:20 AM41 °FFog.2 mph100%29.92 "Hg2 mi
3:50 AM41 °FFog.2 mph100%29.92 "Hg2 mi
3:20 AM41 °FQuite cool.2 mph100%29.92 "Hg1 mi
2:50 AM41 °FFog.5 mph100%29.92 "Hg2 mi
2:20 AM41 °FFog.2 mph100%29.92 "Hg3 mi
1:50 AM41 °FFog.2 mph100%29.92 "Hg3 mi
1:20 AM41 °FFog.1 mph100%29.92 "Hg3 mi
12:50 AM41 °FFog.2 mph100%29.92 "Hg3 mi
12:20 AM41 °FFog.1 mph100%29.92 "Hg2 mi
11:50 PM
Sun, Oct 23
41 °FQuite cool.3 mph100%29.92 "Hg2 mi
11:20 PM41 °FFog.2 mph100%29.95 "Hg2 mi
10:50 PM41 °FFog.3 mph100%29.95 "Hg2 mi
10:20 PM43 °FFog.2 mph93%29.92 "Hg2 mi
9:50 PM43 °FFog.3 mph100%29.92 "Hg3 mi
9:20 PM43 °FFog.3 mph100%29.92 "Hg3 mi
8:50 PM43 °FFog.3 mph100%29.92 "Hg3 mi
8:20 PM43 °FClear.5 mph100%29.92 "Hg4 mi
7:50 PM45 °FClear.3 mph93%29.92 "Hg5 mi
7:20 PM45 °FClear.5 mph100%29.92 "Hg5 mi
6:50 PM45 °FPassing clouds.3 mph100%29.92 "Hg6 mi
6:20 PM45 °FPassing clouds.5 mph93%29.92 "Hg6 mi
5:50 PM45 °FBroken clouds.5 mph93%29.92 "HgN/A
5:20 PM45 °FPartly sunny.3 mph100%29.92 "HgN/A
Weather by CustomWeather, © 2016

See weather overviewHow to use our weather pages